Location: Gülübeli Geçidi
(36.8411°N, 29.7411°E)
Time: 11:29:35
(UTC+00:00)

CZ-4 R/B - Pass Details

Date: 15 May 2026
Orbit: 491 x 534 km, 97.5° (Epoch: 6 June)

Event Time Altitude Azimuth Distance (km) Brightness Sun altitude
Exits shadow 18:03:02 - 167° (SSE) 1,719 3.4 -11.5°
Reaches altitude 10° 18:03:07 10° 168° (SSE) 1,677 3.4 -11.5°
Maximum altitude 18:06:44 89° 260° (W) 496 1.0 -12.1°
Drops below altitude 10° 18:10:22 10° 348° (NNW) 1,690 4.5 -12.7°
Sets 18:12:27 0° 349° (NNW) 2,579 5.5 -13.0°
